TimeEDT,TemperatureF,Dew PointF,Humidity,Sea Level PressureIn,VisibilityMPH,Wind Direction,Wind SpeedMPH,Gust SpeedMPH,PrecipitationIn,Events,Conditions,WindDirDegrees,DateUTC
12:15 AM,32.0,12.6,45,29.76,10.0,WNW,9.2,-,N/A,,Clear,290,2013-03-22 04:15:00
12:35 AM,32.0,12.6,45,29.76,10.0,WNW,8.1,-,N/A,,Clear,290,2013-03-22 04:35:00
12:55 AM,31.5,12.9,46,29.76,10.0,West,8.1,-,N/A,,Clear,280,2013-03-22 04:55:00
1:15 AM,31.6,13.1,46,29.77,10.0,West,8.1,-,N/A,,Clear,280,2013-03-22 05:15:00
1:35 AM,30.9,14.0,50,29.77,10.0,West,9.2,-,N/A,,Clear,280,2013-03-22 05:35:00
2:15 AM,30.7,13.6,49,29.77,10.0,West,5.8,-,N/A,,Clear,280,2013-03-22 06:15:00
2:35 AM,30.2,14.0,51,29.77,10.0,West,6.9,-,N/A,,Clear,280,2013-03-22 06:35:00
2:55 AM,30.4,13.8,50,29.76,10.0,West,5.8,-,N/A,,Clear,270,2013-03-22 06:55:00
3:15 AM,30.9,13.1,48,29.76,10.0,West,8.1,-,N/A,,Clear,260,2013-03-22 07:15:00
3:35 AM,30.6,13.6,50,29.76,10.0,SW,3.5,-,N/A,,Mostly Cloudy,220,2013-03-22 07:35:00
3:55 AM,29.8,14.4,53,29.76,10.0,Calm,Calm,-,N/A,,Scattered Clouds,0,2013-03-22 07:55:00
4:15 AM,29.5,14.5,54,29.75,10.0,Calm,Calm,-,N/A,,Clear,0,2013-03-22 08:15:00
4:35 AM,29.1,14.9,55,29.75,10.0,WSW,3.5,-,N/A,,Clear,250,2013-03-22 08:35:00
4:55 AM,30.2,16.3,56,29.76,10.0,West,6.9,-,N/A,,Mostly Cloudy,270,2013-03-22 08:55:00
5:15 AM,30.2,17.1,58,29.75,10.0,West,6.9,-,N/A,,Scattered Clouds,270,2013-03-22 09:15:00
5:35 AM,30.2,17.6,60,29.75,10.0,West,8.1,-,N/A,,Clear,260,2013-03-22 09:35:00
6:15 AM,30.2,18.3,61,29.77,10.0,West,6.9,-,N/A,,Clear,260,2013-03-22 10:15:00
6:35 AM,30.0,18.5,62,29.77,10.0,West,8.1,-,N/A,,Clear,260,2013-03-22 10:35:00
6:55 AM,30.0,18.7,63,29.78,10.0,West,6.9,-,N/A,,Clear,260,2013-03-22 10:55:00
7:15 AM,30.0,19.0,64,29.78,10.0,West,6.9,-,N/A,,Clear,260,2013-03-22 11:15:00
7:35 AM,30.2,19.0,63,29.79,10.0,West,8.1,-,N/A,,Clear,260,2013-03-22 11:35:00
7:55 AM,30.9,19.2,62,29.80,10.0,West,10.4,-,N/A,,Clear,260,2013-03-22 11:55:00
8:15 AM,31.5,19.4,61,29.81,10.0,West,10.4,-,N/A,,Clear,270,2013-03-22 12:15:00
8:35 AM,32.0,19.4,60,29.81,10.0,West,8.1,16.1,N/A,,Clear,270,2013-03-22 12:35:00
9:15 AM,33.8,18.7,54,29.81,10.0,WNW,13.8,20.7,N/A,,Clear,290,2013-03-22 13:15:00
9:35 AM,34.3,18.3,52,29.81,10.0,West,15.0,21.9,N/A,,Clear,280,2013-03-22 13:35:00
10:15 AM,35.8,18.5,50,29.81,10.0,West,13.8,20.7,N/A,,Clear,280,2013-03-22 14:15:00
10:35 AM,36.7,18.0,47,29.82,10.0,WNW,10.4,18.4,N/A,,Scattered Clouds,300,2013-03-22 14:35:00
11:15 AM,37.0,18.0,46,29.82,10.0,WNW,13.8,23.0,N/A,Snow,Light Snow,290,2013-03-22 15:15:00
11:35 AM,38.3,18.0,44,29.82,10.0,WNW,12.7,25.3,N/A,,Scattered Clouds,290,2013-03-22 15:35:00
11:55 AM,38.3,18.0,44,29.82,10.0,WNW,15.0,24.2,N/A,,Mostly Cloudy,290,2013-03-22 15:55:00
12:15 PM,41.2,19.0,41,29.82,10.0,West,18.4,23.0,N/A,,Mostly Cloudy,280,2013-03-22 16:15:00
12:35 PM,41.5,18.5,40,29.81,10.0,WNW,17.3,26.5,N/A,,Mostly Cloudy,300,2013-03-22 16:35:00
12:55 PM,39.9,17.1,40,29.81,10.0,WNW,17.3,25.3,N/A,,Scattered Clouds,300,2013-03-22 16:55:00
1:15 PM,42.3,18.5,39,29.81,10.0,WNW,16.1,25.3,N/A,,Unknown,290,2013-03-22 17:15:00
1:35 PM,41.0,17.2,38,29.80,10.0,WNW,15.0,25.3,N/A,,Overcast,300,2013-03-22 17:35:00
1:55 PM,41.2,17.1,38,29.80,10.0,WNW,13.8,18.4,N/A,,Mostly Cloudy,300,2013-03-22 17:55:00
2:15 PM,41.5,17.2,38,29.80,10.0,NW,9.2,23.0,N/A,,Mostly Cloudy,310,2013-03-22 18:15:00
2:35 PM,43.2,17.2,35,29.79,10.0,WNW,19.6,24.2,N/A,,Mostly Cloudy,290,2013-03-22 18:35:00
2:55 PM,42.1,16.9,36,29.79,10.0,WNW,20.7,24.2,N/A,,Overcast,300,2013-03-22 18:55:00
3:15 PM,42.6,18.0,37,29.79,10.0,West,16.1,23.0,N/A,,Overcast,280,2013-03-22 19:15:00
3:35 PM,42.1,18.3,39,29.79,10.0,West,13.8,21.9,N/A,,Overcast,280,2013-03-22 19:35:00
3:55 PM,42.3,17.6,37,29.79,10.0,WNW,15.0,26.5,N/A,,Overcast,300,2013-03-22 19:55:00
4:15 PM,42.4,18.1,38,29.79,10.0,WNW,16.1,27.6,N/A,,Mostly Cloudy,290,2013-03-22 20:15:00
4:35 PM,43.0,18.0,37,29.80,10.0,WNW,16.1,27.6,N/A,,Mostly Cloudy,300,2013-03-22 20:35:00
4:55 PM,44.2,18.7,36,29.80,10.0,WNW,18.4,26.5,N/A,,Mostly Cloudy,300,2013-03-22 20:55:00
5:15 PM,42.8,17.8,37,29.80,10.0,WNW,16.1,28.8,N/A,,Mostly Cloudy,290,2013-03-22 21:15:00
5:35 PM,43.3,17.2,35,29.81,10.0,WNW,16.1,26.5,N/A,,Overcast,290,2013-03-22 21:35:00
5:55 PM,43.7,17.2,35,29.81,10.0,WNW,18.4,26.5,N/A,,Mostly Cloudy,290,2013-03-22 21:55:00
6:15 PM,43.3,17.4,35,29.81,10.0,WNW,15.0,23.0,N/A,,Overcast,290,2013-03-22 22:15:00
6:35 PM,42.4,18.5,38,29.82,10.0,West,11.5,19.6,N/A,,Overcast,270,2013-03-22 22:35:00
6:55 PM,41.9,18.5,39,29.83,10.0,West,15.0,23.0,N/A,,Overcast,280,2013-03-22 22:55:00
7:15 PM,41.0,18.9,41,29.84,10.0,West,12.7,-,N/A,,Mostly Cloudy,280,2013-03-22 23:15:00
7:35 PM,40.6,19.2,42,29.85,10.0,West,11.5,-,N/A,,Scattered Clouds,270,2013-03-22 23:35:00
7:55 PM,41.0,18.5,40,29.85,10.0,West,12.7,-,N/A,,Scattered Clouds,270,2013-03-22 23:55:00
8:15 PM,40.5,19.2,43,29.86,10.0,West,11.5,17.3,N/A,,Clear,270,2013-03-23 00:15:00
8:35 PM,40.1,20.3,45,29.86,10.0,West,16.1,19.6,N/A,,Clear,270,2013-03-23 00:35:00
8:55 PM,39.2,21.0,48,29.86,10.0,West,13.8,-,N/A,,Clear,280,2013-03-23 00:55:00
9:15 PM,38.8,21.7,50,29.87,10.0,West,15.0,19.6,N/A,,Clear,270,2013-03-23 01:15:00
9:35 PM,38.7,21.9,51,29.88,10.0,West,13.8,17.3,N/A,,Clear,260,2013-03-23 01:35:00
9:55 PM,38.3,22.5,53,29.88,10.0,West,9.2,20.7,N/A,,Clear,260,2013-03-23 01:55:00
10:15 PM,37.8,22.8,55,29.89,10.0,West,11.5,-,N/A,,Clear,260,2013-03-23 02:15:00
10:35 PM,37.4,23.0,56,29.89,10.0,West,15.0,18.4,N/A,,Clear,270,2013-03-23 02:35:00
10:55 PM,36.9,23.0,57,29.89,10.0,West,12.7,18.4,N/A,,Clear,270,2013-03-23 02:55:00
11:15 PM,36.5,23.0,58,29.89,10.0,West,18.4,21.9,N/A,,Clear,270,2013-03-23 03:15:00
11:35 PM,36.3,23.0,59,29.89,10.0,West,15.0,-,N/A,,Clear,280,2013-03-23 03:35:00
11:55 PM,35.8,22.8,59,29.90,10.0,West,11.5,-,N/A,,Clear,280,2013-03-23 03:55:00